Flag for U.S.A. Weather past 2 weeks in Pomona, California, U.S.A.

Now
91 °F

Passing clouds.


Feels Like: 90 °F
Forecast: 71 / 102 °F
Wind: 13 mph from Southwest

Location: Chino Airport

Current Time: Aug 27, 2015 at 7:28:20 PM

Latest Report: Aug 27, 2015 at 6:53 PM


Visibility: 10 mi

Pressure: 29.85 "Hg

Humidity: 34%

Dew point: 59 °F

Location of PomonaLocation

Historic Weather in Pomona — Graph

°F

Pomona temperature yesterday

Maximum temperature yesterday: 101 °F (at 1:53 PM)
Minimum temperature yesterday: 72 °F (at 5:53 AM)
Average temperature yesterday: 85 °F

Past Weeks' High & Low Weather Summary

 TemperatureHumidityPressure
High108 °F (Aug 15, 1:53 PM)94% (Aug 18, 6:53 AM)29.99 "Hg (Aug 18, 6:53 AM)
Low63 °F (Aug 19, 5:53 AM)6% (Aug 16, 12:53 PM)29.78 "Hg (Aug 16, 5:53 PM)
Average80 °F54%29.90 "Hg
* Reported Aug 12 5:53 PM — Aug 27 5:53 PM, Pomona, Weather by CustomWeather, © 2015

Note: Actual official high and low records may vary slightly from our data, if they occured in-between our weather recording intervals... More about our weather records

Advertising

Pomona weather history for previous 24 hours

 ConditionsComfort  
Time TempWeatherWind HumidityBarometerVisibility
5:53 PM
Thu, Aug 27
97 °FPassing clouds.14 mph27%29.85 "Hg10 mi
4:53 PM100 °FPassing clouds.15 mph22%29.85 "Hg10 mi
3:53 PM102 °FPassing clouds.15 mph17%29.86 "Hg10 mi
2:53 PM102 °FPassing clouds.14 mph20%29.89 "Hg10 mi
1:53 PM102 °FScattered clouds.14 mph20%29.91 "Hg10 mi
12:53 PM100 °FPassing clouds.9 mph20%29.94 "Hg10 mi
11:53 AM98 °FPassing clouds.N/A24%29.96 "Hg10 mi
10:53 AM93 °FPassing clouds.No wind30%29.98 "Hg10 mi
9:53 AM87 °FPassing clouds.No wind39%29.98 "Hg10 mi
8:53 AM82 °FSunny.No wind49%29.99 "Hg10 mi
7:53 AM76 °FSunny.No wind64%29.98 "Hg10 mi
6:53 AM70 °FClear.No wind79%29.97 "Hg10 mi
5:53 AM68 °FClear.3 mph82%29.96 "Hg6 mi
4:53 AM69 °FClear.No wind79%29.96 "Hg6 mi
3:53 AM71 °FClear.No wind73%29.96 "Hg6 mi
2:53 AM72 °FClear.5 mph68%29.96 "Hg8 mi
1:53 AM73 °FClear.No wind69%29.96 "Hg8 mi
12:53 AM74 °FClear.5 mph67%29.97 "Hg8 mi
11:53 PM
Wed, Aug 26
75 °FClear.5 mph66%29.97 "Hg8 mi
10:53 PM79 °FClear.No wind58%29.97 "Hg7 mi
9:53 PM79 °FClear.7 mph58%29.96 "Hg9 mi
8:53 PM81 °FClear.5 mph51%29.94 "Hg9 mi
7:53 PM86 °FSunny.13 mph43%29.91 "Hg10 mi
Weather by CustomWeather, © 2015

See weather overviewHow to use our weather pages